World > North America > United States > Washington

Sunnyside, Washington Regional Weather

Lat: 46.32N, Lon: 120.01W
Wx Zone: WAZ027
Feedback

Sunnyside, WA Regional Weather

Expires:201908201000;;508053
ASUS46 KSEW 200910
RWRWA 

WASHINGTON REGIONAL WEATHER ROUNDUP
NATIONAL WEATHER SERVICE SEATTLE WA
200 AM PDT TUE AUG 20 2019

NOTE:"FAIR" INDICATES FEW OR NO CLOUDS BELOW 12,000 FEET WITH NO 
SIGNIFICANT WEATHER AND/OR OBSTRUCTIONS TO VISIBILITY.


WAZ026-027-041>044-520-521-201000-
EAST SLOPES
  
CITY           SKY/WX    TMP DP  RH WIND       PRES   REMARKS
OMAK           PTCLDY    69  39  33 N10       29.93R                  
WENATCHEE      CLEAR     68  47  46 W6        29.92S                  
ELLENSBURG     CLEAR     54  47  77 NW6       29.95R                  
YAKIMA         CLEAR     63  50  62 W9        29.91S                  
SUNNYSIDE ARPT SUNNY     58  55  88 W3        29.89                   
YAKIMA TC      FAIR      63  39  41 E7        29.91R                  
$$


SKY/WX - Weather  TMP - Temperature  DP - Dew Point  RH - Relative Humidity
WIND - Wind Direction/Speed PRES - Barometric Pressure VSB - Visibility
WCI - Wind Chill Index E13G22 Wind - East Wind 13 mph/Gusts of 22 mph